AAL1449 KDFW-KSAT

Flight info

Callsign AAL1449
Flight time 1h 9m
Altitude 30000
Route WSTEX2 DOSXX SJT TRVLL DNKIN2
Aircraft B738/M-SDE2E3FGHIRWXY/LB1

Departure

Time 2026-04-30 20:21
Airport Dallas Fort Worth International Airport (KDFW)

Arrival

Time 2026-04-30 21:31
Airport San Antonio International Airport (KSAT)
Time Latitude Longitude Altitude Speed Heading
2026-04-30 19:45 32.90190 -97.04335 595 ft 0 kts 20°
2026-04-30 20:08 32.90168 -97.04345 595 ft 4 kts 20°
2026-04-30 20:08 32.90149 -97.04353 595 ft 4 kts
2026-04-30 20:09 32.90128 -97.04347 595 ft 3 kts 339°
2026-04-30 20:09 32.90108 -97.04339 596 ft 0 kts 339°
2026-04-30 20:10 32.90109 -97.04339 596 ft 0 kts 339°
2026-04-30 20:12 32.90112 -97.04342 596 ft 2 kts 325°
2026-04-30 20:13 32.90130 -97.04374 595 ft 7 kts 289°
2026-04-30 20:13 32.90133 -97.04437 595 ft 8 kts 271°
2026-04-30 20:13 32.90134 -97.04505 596 ft 8 kts 270°
2026-04-30 20:13 32.90135 -97.04572 596 ft 8 kts 270°
2026-04-30 20:14 32.90134 -97.04638 596 ft 8 kts 269°
2026-04-30 20:14 32.90134 -97.04705 596 ft 8 kts 270°
2026-04-30 20:14 32.90105 -97.04757 596 ft 8 kts 202°
2026-04-30 20:14 32.90050 -97.04763 598 ft 8 kts 180°
2026-04-30 20:15 32.89992 -97.04763 598 ft 10 kts 179°
2026-04-30 20:15 32.89910 -97.04763 597 ft 14 kts 181°
2026-04-30 20:15 32.89796 -97.04765 596 ft 18 kts 180°
2026-04-30 20:15 32.89662 -97.04765 597 ft 20 kts 180°
2026-04-30 20:16 32.89510 -97.04765 595 ft 24 kts 181°
2026-04-30 20:16 32.89337 -97.04765 594 ft 25 kts 179°
2026-04-30 20:16 32.89172 -97.04770 593 ft 23 kts 181°
2026-04-30 20:16 32.89003 -97.04770 589 ft 25 kts 176°
2026-04-30 20:17 32.88835 -97.04767 590 ft 23 kts 181°
2026-04-30 20:17 32.88677 -97.04769 588 ft 22 kts 180°
2026-04-30 20:17 32.88525 -97.04770 586 ft 22 kts 179°
2026-04-30 20:17 32.88398 -97.04806 588 ft 18 kts 182°
2026-04-30 20:18 32.88273 -97.04806 587 ft 18 kts 179°
2026-04-30 20:18 32.88160 -97.04809 586 ft 12 kts 182°
2026-04-30 20:18 32.88085 -97.04847 587 ft 12 kts 221°
2026-04-30 20:18 32.88059 -97.04903 587 ft 0 kts 264°
2026-04-30 20:19 32.88058 -97.04905 587 ft 2 kts 264°
2026-04-30 20:19 32.88057 -97.04980 588 ft 11 kts 270°
2026-04-30 20:19 32.88071 -97.05073 589 ft 13 kts 312°
2026-04-30 20:20 32.88109 -97.05089 590 ft 0 kts 357°
2026-04-30 20:20 32.88152 -97.05091 590 ft 23 kts 359°
2026-04-30 20:20 32.88567 -97.05088 587 ft 95 kts
2026-04-30 20:20 32.89435 -97.05078 600 ft 152 kts
2026-04-30 20:21 32.90573 -97.05050 1011 ft 171 kts
2026-04-30 20:21 32.91790 -97.05036 1783 ft 175 kts
2026-04-30 20:21 32.93100 -97.05062 2228 ft 204 kts
2026-04-30 20:21 32.94599 -97.05304 2444 ft 232 kts 344°
2026-04-30 20:22 32.96142 -97.05995 3011 ft 240 kts 343°
2026-04-30 20:22 32.97732 -97.06678 3591 ft 251 kts 343°
2026-04-30 20:22 32.99405 -97.07473 4189 ft 266 kts 330°
2026-04-30 20:22 33.00655 -97.09031 5102 ft 269 kts 295°
2026-04-30 20:23 33.01067 -97.11171 6045 ft 262 kts 267°
2026-04-30 20:23 33.00937 -97.13322 7032 ft 258 kts 264°
2026-04-30 20:23 33.00805 -97.15447 7954 ft 255 kts 265°
2026-04-30 20:23 33.00653 -97.17545 8820 ft 256 kts 263°
2026-04-30 20:24 33.00439 -97.19676 9512 ft 261 kts 263°
2026-04-30 20:24 33.00217 -97.21817 9911 ft 258 kts 263°
2026-04-30 20:24 32.99847 -97.23920 9997 ft 265 kts 248°
2026-04-30 20:24 32.98903 -97.25816 10024 ft 269 kts 238°
2026-04-30 20:25 32.96589 -97.29395 10143 ft 286 kts 235°
2026-04-30 20:25 32.95310 -97.31328 10323 ft 308 kts 235°
2026-04-30 20:26 32.92477 -97.35630 10611 ft 350 kts 235°
2026-04-30 20:26 32.89910 -97.39556 11142 ft 368 kts 235°
2026-04-30 20:26 32.88342 -97.41955 11797 ft 367 kts 235°
2026-04-30 20:27 32.85221 -97.46738 13205 ft 365 kts 235°
2026-04-30 20:27 32.82102 -97.51522 14325 ft 367 kts 236°
2026-04-30 20:28 32.78972 -97.56314 15478 ft 370 kts 236°
2026-04-30 20:28 32.75793 -97.61189 16589 ft 374 kts 237°
2026-04-30 20:29 32.72607 -97.66066 17691 ft 375 kts 237°
2026-04-30 20:30 32.68150 -97.73711 18812 ft 375 kts 252°
2026-04-30 20:30 32.66989 -97.82882 19756 ft 380 kts 265°
2026-04-30 20:31 32.66318 -97.92373 20647 ft 388 kts 265°
2026-04-30 20:32 32.65568 -98.02038 21462 ft 396 kts 265°
2026-04-30 20:32 32.65048 -98.08579 21984 ft 400 kts 265°
2026-04-30 20:33 32.64785 -98.11877 22229 ft 403 kts 264°
2026-04-30 20:33 32.64252 -98.18529 22723 ft 407 kts 264°
2026-04-30 20:33 32.63982 -98.21873 22947 ft 409 kts 264°
2026-04-30 20:34 32.63439 -98.28586 23392 ft 413 kts 264°
2026-04-30 20:34 32.62885 -98.35391 23768 ft 416 kts 264°
2026-04-30 20:35 32.62606 -98.38808 24008 ft 416 kts 264°
2026-04-30 20:35 32.62326 -98.42218 24247 ft 415 kts 264°
2026-04-30 20:35 32.61764 -98.49042 24674 ft 416 kts 264°
2026-04-30 20:36 32.61481 -98.52458 24863 ft 416 kts 264°
2026-04-30 20:36 32.61197 -98.55876 25077 ft 416 kts 264°
2026-04-30 20:36 32.60626 -98.62714 25477 ft 417 kts 264°
2026-04-30 20:37 32.60339 -98.66135 25661 ft 417 kts 264°
2026-04-30 20:37 32.60054 -98.69516 25814 ft 417 kts 264°
2026-04-30 20:37 32.59765 -98.72946 25945 ft 418 kts 264°
2026-04-30 20:37 32.59474 -98.76376 26072 ft 418 kts 264°
2026-04-30 20:38 32.59183 -98.79797 26258 ft 417 kts 264°
2026-04-30 20:38 32.58892 -98.83210 26495 ft 414 kts 264°
2026-04-30 20:38 32.58602 -98.86600 26731 ft 412 kts 264°
2026-04-30 20:39 32.58024 -98.93324 27206 ft 408 kts 264°
2026-04-30 20:39 32.57735 -98.96670 27446 ft 407 kts 264°
2026-04-30 20:39 32.57446 -98.99998 27687 ft 405 kts 264°
2026-04-30 20:40 32.56871 -99.06604 28160 ft 401 kts 264°
2026-04-30 20:40 32.56584 -99.09893 28404 ft 400 kts 264°
2026-04-30 20:40 32.56297 -99.13163 28709 ft 397 kts 264°
2026-04-30 20:41 32.55731 -99.19582 29309 ft 392 kts 264°
2026-04-30 20:41 32.55447 -99.22795 29564 ft 391 kts 264°
2026-04-30 20:41 32.55164 -99.25991 29804 ft 390 kts 264°
2026-04-30 20:41 32.54880 -99.29184 29972 ft 389 kts 264°
2026-04-30 20:42 32.54069 -99.35535 29975 ft 391 kts 257°
2026-04-30 20:43 32.51735 -99.44831 30002 ft 394 kts 256°
2026-04-30 20:43 32.50179 -99.51059 30016 ft 395 kts 256°
2026-04-30 20:44 32.47881 -99.60434 30022 ft 395 kts 256°
2026-04-30 20:45 32.44832 -99.72875 30027 ft 394 kts 256°
2026-04-30 20:45 32.43303 -99.79092 30039 ft 393 kts 256°
2026-04-30 20:46 32.39862 -99.91349 30039 ft 400 kts 242°
2026-04-30 20:47 32.36024 -99.96233 30025 ft 414 kts 225°
2026-04-30 20:47 32.33520 -99.97988 29955 ft 424 kts 215°
2026-04-30 20:48 32.25328 -100.02062 29958 ft 426 kts 212°
2026-04-30 20:48 32.19841 -100.04725 29944 ft 426 kts 213°
2026-04-30 20:49 32.14373 -100.07431 29959 ft 427 kts 213°
2026-04-30 20:50 32.06142 -100.11539 29959 ft 430 kts 213°
2026-04-30 20:50 32.00658 -100.14274 29957 ft 431 kts 213°
2026-04-30 20:51 31.95126 -100.17028 29962 ft 432 kts 213°
2026-04-30 20:51 31.86808 -100.21160 29947 ft 433 kts 212°
2026-04-30 20:52 31.81251 -100.23917 29952 ft 434 kts 212°
2026-04-30 20:53 31.72909 -100.28049 29946 ft 434 kts 212°
2026-04-30 20:53 31.67373 -100.30786 29950 ft 434 kts 212°
2026-04-30 20:54 31.59033 -100.34904 29965 ft 433 kts 212°
2026-04-30 20:55 31.50691 -100.39015 29990 ft 433 kts 212°
2026-04-30 20:55 31.45118 -100.41758 30008 ft 434 kts 212°
2026-04-30 20:56 31.39185 -100.43558 30021 ft 465 kts 189°
2026-04-30 20:56 31.35915 -100.43089 29968 ft 484 kts 175°
2026-04-30 20:56 31.29774 -100.39424 30026 ft 513 kts 153°
2026-04-30 20:57 31.26866 -100.36980 29989 ft 516 kts 152°
2026-04-30 20:57 31.21080 -100.32008 29968 ft 517 kts 152°
2026-04-30 20:58 31.12321 -100.24669 29924 ft 516 kts 153°
2026-04-30 20:58 31.06445 -100.19837 29919 ft 516 kts 152°
2026-04-30 20:59 30.97612 -100.12591 29927 ft 518 kts 152°
2026-04-30 21:00 30.85786 -100.02901 29918 ft 520 kts 152°
2026-04-30 21:01 30.76915 -99.95646 29927 ft 518 kts 153°
2026-04-30 21:02 30.68070 -99.88433 29953 ft 517 kts 153°
2026-04-30 21:02 30.62213 -99.83664 29976 ft 516 kts 153°
2026-04-30 21:03 30.56355 -99.78794 29555 ft 523 kts 150°
2026-04-30 21:03 30.53461 -99.76206 28801 ft 524 kts 148°
2026-04-30 21:03 30.50600 -99.73583 27980 ft 523 kts 148°
2026-04-30 21:03 30.47756 -99.70966 27122 ft 523 kts 148°
2026-04-30 21:04 30.44899 -99.68354 26235 ft 523 kts 148°
2026-04-30 21:04 30.42033 -99.65757 25281 ft 524 kts 148°
2026-04-30 21:04 30.36298 -99.60608 23817 ft 517 kts 148°
2026-04-30 21:05 30.33468 -99.58078 23050 ft 512 kts 148°
2026-04-30 21:05 30.30670 -99.55579 22463 ft 503 kts 148°
2026-04-30 21:05 30.27903 -99.53110 21633 ft 500 kts 148°
2026-04-30 21:05 30.25181 -99.50682 20976 ft 492 kts 148°
2026-04-30 21:06 30.22482 -99.48277 20374 ft 486 kts 148°
2026-04-30 21:06 30.19820 -99.45906 19607 ft 483 kts 148°
2026-04-30 21:06 30.17222 -99.43593 19125 ft 472 kts 148°
2026-04-30 21:06 30.14582 -99.41247 18389 ft 471 kts 148°
2026-04-30 21:07 30.12049 -99.38993 17753 ft 463 kts 148°
2026-04-30 21:07 30.09494 -99.36727 17083 ft 459 kts 148°
2026-04-30 21:07 30.06979 -99.34494 16380 ft 455 kts 148°
2026-04-30 21:07 30.04498 -99.32294 15767 ft 448 kts 147°
2026-04-30 21:08 30.02038 -99.30109 15239 ft 442 kts 147°
2026-04-30 21:08 29.99610 -99.27960 14523 ft 437 kts 147°
2026-04-30 21:08 29.97227 -99.25851 13852 ft 431 kts 146°
2026-04-30 21:08 29.94869 -99.23765 13217 ft 422 kts 146°
2026-04-30 21:09 29.92657 -99.21584 12532 ft 418 kts 135°
2026-04-30 21:09 29.91138 -99.18778 12229 ft 409 kts 117°
2026-04-30 21:09 29.90053 -99.15770 11682 ft 407 kts 114°
2026-04-30 21:09 29.88998 -99.12721 11306 ft 407 kts 115°
2026-04-30 21:10 29.87949 -99.09764 11148 ft 391 kts 115°
2026-04-30 21:10 29.86919 -99.06929 10981 ft 378 kts 116°
2026-04-30 21:10 29.85909 -99.04187 10828 ft 366 kts 116°
2026-04-30 21:10 29.84930 -99.01534 10678 ft 355 kts 116°
2026-04-30 21:11 29.83978 -98.98949 10529 ft 345 kts 116°
2026-04-30 21:11 29.82916 -98.96530 10364 ft 331 kts 131°
2026-04-30 21:11 29.81429 -98.94580 10261 ft 319 kts 136°
2026-04-30 21:11 29.79952 -98.92719 10114 ft 311 kts 136°
2026-04-30 21:12 29.78520 -98.90901 9981 ft 303 kts 135°
2026-04-30 21:12 29.77142 -98.89138 9880 ft 291 kts 135°
2026-04-30 21:12 29.75782 -98.87385 9481 ft 291 kts 135°
2026-04-30 21:12 29.74436 -98.85653 9108 ft 289 kts 135°
2026-04-30 21:13 29.73110 -98.83945 8814 ft 283 kts 135°
2026-04-30 21:13 29.71812 -98.82270 8533 ft 279 kts 134°
2026-04-30 21:13 29.70523 -98.80607 8257 ft 278 kts 134°
2026-04-30 21:13 29.69256 -98.78971 7986 ft 277 kts 134°
2026-04-30 21:14 29.67948 -98.77353 7725 ft 275 kts 136°
2026-04-30 21:14 29.67050 -98.76285 7545 ft 275 kts 136°
2026-04-30 21:14 29.65740 -98.74732 7421 ft 267 kts 135°
2026-04-30 21:14 29.64026 -98.72779 7232 ft 256 kts 147°
2026-04-30 21:15 29.62427 -98.71958 6994 ft 251 kts 163°
2026-04-30 21:15 29.60756 -98.71335 6767 ft 254 kts 162°
2026-04-30 21:15 29.59079 -98.70688 6598 ft 252 kts 162°
2026-04-30 21:15 29.57451 -98.70055 6431 ft 243 kts 161°
2026-04-30 21:16 29.56376 -98.69636 6250 ft 240 kts 161°
2026-04-30 21:16 29.54832 -98.69034 6022 ft 232 kts 161°
2026-04-30 21:16 29.53345 -98.68453 5953 ft 218 kts 160°
2026-04-30 21:16 29.51938 -98.67904 5912 ft 211 kts 160°
2026-04-30 21:17 29.50546 -98.67361 5927 ft 212 kts 161°
2026-04-30 21:17 29.49137 -98.66812 5934 ft 214 kts 160°
2026-04-30 21:17 29.47727 -98.66262 5919 ft 214 kts 160°
2026-04-30 21:17 29.46295 -98.65848 5899 ft 214 kts 180°
2026-04-30 21:18 29.44926 -98.66392 5934 ft 211 kts 214°
2026-04-30 21:18 29.43761 -98.67464 5930 ft 217 kts 220°
2026-04-30 21:18 29.42618 -98.68612 5933 ft 219 kts 220°
2026-04-30 21:18 29.41490 -98.69763 5859 ft 215 kts 220°
2026-04-30 21:19 29.40297 -98.70761 5562 ft 211 kts 199°
2026-04-30 21:19 29.38889 -98.70869 5302 ft 199 kts 161°
2026-04-30 21:19 29.37777 -98.70009 5048 ft 195 kts 123°
2026-04-30 21:19 29.37378 -98.68559 4982 ft 193 kts 96°
2026-04-30 21:20 29.37348 -98.67000 4950 ft 198 kts 89°
2026-04-30 21:20 29.37667 -98.65447 4931 ft 202 kts 72°
2026-04-30 21:20 29.38140 -98.63944 4921 ft 196 kts 72°
2026-04-30 21:20 29.38585 -98.62495 4905 ft 190 kts 74°
2026-04-30 21:21 29.39009 -98.61091 4916 ft 188 kts 73°
2026-04-30 21:21 29.39544 -98.59713 4895 ft 193 kts 54°
2026-04-30 21:21 29.41583 -98.57658 4354 ft 202 kts 44°
2026-04-30 21:22 29.42653 -98.56586 3898 ft 206 kts 45°
2026-04-30 21:22 29.45851 -98.53415 2935 ft 183 kts 44°
2026-04-30 21:23 29.46774 -98.52508 2976 ft 175 kts 43°
2026-04-30 21:23 29.47715 -98.51617 2931 ft 169 kts 41°
2026-04-30 21:23 29.49602 -98.50031 2914 ft 164 kts 22°
2026-04-30 21:24 29.50800 -98.49880 3001 ft 182 kts 358°
2026-04-30 21:24 29.52026 -98.50296 2870 ft 188 kts 335°
2026-04-30 21:24 29.53014 -98.51218 2780 ft 181 kts 307°
2026-04-30 21:24 29.53537 -98.52509 2741 ft 179 kts 282°
2026-04-30 21:25 29.53205 -98.55266 3337 ft 177 kts 234°
2026-04-30 21:25 29.52357 -98.56267 3583 ft 173 kts 207°
2026-04-30 21:25 29.51229 -98.56684 3723 ft 172 kts 186°
2026-04-30 21:26 29.49016 -98.57683 3933 ft 172 kts 197°
2026-04-30 21:26 29.47867 -98.57851 3838 ft 170 kts 171°
2026-04-30 21:27 29.45883 -98.56634 3572 ft 163 kts 127°
2026-04-30 21:27 29.45360 -98.55483 3388 ft 163 kts 108°
2026-04-30 21:27 29.45101 -98.54191 3077 ft 165 kts 98°
2026-04-30 21:28 29.45942 -98.51928 2334 ft 160 kts 36°
2026-04-30 21:28 29.46950 -98.51461 2122 ft 157 kts 20°
2026-04-30 21:28 29.48934 -98.50573 1727 ft 143 kts 43°
2026-04-30 21:29 29.49624 -98.49719 1532 ft 147 kts 52°
2026-04-30 21:29 29.51933 -98.47406 947 ft 150 kts 40°
2026-04-30 21:30 29.53318 -98.46012 797 ft 92 kts 41°
2026-04-30 21:31 29.53731 -98.45772 797 ft 8 kts 253°
2026-04-30 21:31 29.53648 -98.45874 797 ft 11 kts 224°
2026-04-30 21:32 29.53507 -98.46006 797 ft 15 kts 220°
2026-04-30 21:32 29.53495 -98.46019 797 ft 2 kts 223°
2026-04-30 21:32 29.53482 -98.46043 797 ft 8 kts 249°
2026-04-30 21:32 29.53473 -98.46134 797 ft 13 kts 265°
2026-04-30 21:33 29.53466 -98.46237 797 ft 13 kts 266°
2026-04-30 21:33 29.53457 -98.46436 797 ft 12 kts 268°
2026-04-30 21:33 29.53453 -98.46531 797 ft 12 kts 266°
2026-04-30 21:34 29.53448 -98.46624 797 ft 11 kts 266°
2026-04-30 21:34 29.53358 -98.46764 797 ft 11 kts 222°
2026-04-30 21:34 29.53302 -98.46820 797 ft 11 kts 221°
2026-04-30 21:35 29.53248 -98.46874 797 ft 10 kts 220°
2026-04-30 21:35 29.53195 -98.46926 797 ft 10 kts 221°
2026-04-30 21:35 29.53145 -98.46979 797 ft 10 kts 223°
2026-04-30 21:35 29.53097 -98.47032 802 ft 9 kts 223°
2026-04-30 21:36 29.53048 -98.47075 792 ft 7 kts 219°
2026-04-30 21:36 29.53031 -98.47109 792 ft 5 kts 251°
2026-04-30 21:37 29.53019 -98.47236 793 ft 2 kts 266°
2026-04-30 21:37 29.53012 -98.47270 791 ft 7 kts 246°
2026-04-30 21:37 29.52976 -98.47285 791 ft 6 kts 172°
2026-04-30 21:37 29.52959 -98.47267 792 ft 2 kts 98°
2026-04-30 21:38 29.52946 -98.47240 791 ft 0 kts 156°
2026-04-30 21:38 29.52943 -98.47240 791 ft 2 kts 168°
2026-04-30 21:38 29.52938 -98.47238 791 ft 0 kts 163°